| time (UTC) | temp F | wind direction | speed knots | gust knots | rain 1hr in | rain 24hr in | rain mn in | humidity % | barometer mb |
| 20260507003858 | 72 | 279 | 0.9 | 6.1 | 0.00 | 0.00 | 0.00 | 59 | 1013.9 |
| 20260507003403 | 72 | 213 | 2.6 | 6.1 | 0.00 | 0.00 | 0.00 | 58 | 1013.8 |
| 20260507002849 | 72 | 141 | 0.0 | 4.3 | 0.00 | 0.00 | 0.00 | 59 | 1013.8 |
| 20260507002352 | 72 | 260 | 1.7 | 5.2 | 0.00 | 0.00 | 0.00 | 59 | 1013.8 |
| 20260507001857 | 72 | 167 | 1.7 | 5.2 | 0.00 | 0.00 | 0.00 | 59 | 1013.7 |
| 20260507001424 | 73 | 154 | 0.9 | 3.5 | 0.00 | 0.00 | 0.00 | 59 | 1013.8 |
| 20260507000907 | 73 | 184 | 0.9 | 2.6 | 0.00 | 0.00 | 0.00 | 59 | 1013.7 |
| 20260507000354 | 73 | 264 | 0.0 | 2.6 | 0.00 | 0.00 | 0.00 | 60 | 1013.7 |
| 20260506235858 | 73 | 286 | 1.7 | 4.3 | 0.00 | 0.00 | 0.00 | 59 | 1013.6 |
| 20260506235403 | 73 | 256 | 0.9 | 5.2 | 0.00 | 0.00 | 0.00 | 59 | 1013.7 |
| 20260506234849 | 72 | 276 | 0.9 | 5.2 | 0.00 | 0.00 | 0.00 | 59 | 1013.7 |
| 20260506234353 | 72 | 175 | 1.7 | 4.3 | 0.00 | 0.00 | 0.00 | 60 | 1013.6 |
| 20260506233855 | 73 | 266 | 2.6 | 4.3 | 0.00 | 0.00 | 0.00 | 59 | 1013.6 |
| 20260506233353 | 73 | 242 | 1.7 | 5.2 | 0.00 | 0.00 | 0.00 | 58 | 1013.6 |
| 20260506232901 | 73 | 220 | 0.9 | 5.2 | 0.00 | 0.00 | 0.00 | 59 | 1013.7 |
| 20260506231355 | 74 | 160 | 2.6 | 7.8 | 0.00 | 0.00 | 0.00 | 58 | 1013.6 |
| 20260506230902 | 74 | 255 | 2.6 | 7.8 | 0.00 | 0.00 | 0.00 | 58 | 1013.7 |
| 20260506225856 | 75 | 202 | 1.7 | 7.0 | 0.00 | 0.00 | 0.00 | 57 | 1013.7 |
| 20260506225401 | 75 | 216 | 2.6 | 7.0 | 0.00 | 0.00 | 0.00 | 57 | 1013.7 |
| 20260506224902 | 75 | 243 | 3.5 | 7.0 | 0.00 | 0.00 | 0.00 | 56 | 1013.7 |
| 20260506224359 | 75 | 279 | 1.7 | 4.3 | 0.00 | 0.00 | 0.00 | 55 | 1013.8 |
| 20260506223906 | 75 | 185 | 0.9 | 5.2 | 0.00 | 0.00 | 0.00 | 55 | 1013.8 |
| 20260506223408 | 75 | 151 | 2.6 | 7.0 | 0.00 | 0.00 | 0.00 | 55 | 1013.9 |
| 20260506222854 | 75 | 158 | 1.7 | 7.0 | 0.00 | 0.00 | 0.00 | 55 | 1013.9 |
| 20260506222359 | 75 | 262 | 2.6 | 7.0 | 0.00 | 0.00 | 0.00 | 55 | 1014.0 |
| 20260506221904 | 75 | 284 | 0.9 | 5.2 | 0.00 | 0.00 | 0.00 | 55 | 1014.0 |
| 20260506221428 | 75 | 219 | 0.9 | 5.2 | 0.00 | 0.00 | 0.00 | 55 | 1014.0 |
| 20260506220851 | 75 | 236 | 2.6 | 6.1 | 0.00 | 0.00 | 0.00 | 55 | 1014.2 |
| 20260506220358 | 75 | 242 | 1.7 | 5.2 | 0.00 | 0.00 | 0.00 | 54 | 1014.3 |
| 20260506215924 | 75 | 193 | 2.6 | 5.2 | 0.00 | 0.00 | 0.00 | 54 | 1014.3 |
| 20260506215425 | 75 | 267 | 0.9 | 5.2 | 0.00 | 0.00 | 0.00 | 53 | 1014.3 |
| 20260506214849 | 75 | 219 | 1.7 | 4.3 | 0.00 | 0.00 | 0.00 | 53 | 1014.4 |
| 20260506214412 | 75 | 157 | 1.7 | 5.2 | 0.00 | 0.00 | 0.00 | 53 | 1014.5 |
| 20260506213858 | 75 | 138 | 1.7 | 5.2 | 0.00 | 0.00 | 0.00 | 53 | 1014.6 |
| 20260506212857 | 75 | 209 | 0.9 | 4.3 | 0.00 | 0.00 | 0.00 | 54 | 1014.7 |
| 20260506212403 | 74 | 262 | 1.7 | 4.3 | 0.00 | 0.00 | 0.00 | 55 | 1014.8 |
| 20260506211907 | 74 | 265 | 1.7 | 7.0 | 0.00 | 0.00 | 0.00 | 55 | 1014.8 |
| 20260506211412 | 74 | 246 | 3.5 | 7.0 | 0.00 | 0.00 | 0.00 | 54 | 1014.8 |
| 20260506210858 | 74 | 126 | 0.9 | 4.3 | 0.00 | 0.00 | 0.00 | 54 | 1014.9 |
| 20260506210422 | 74 | 249 | 2.6 | 5.2 | 0.00 | 0.00 | 0.00 | 55 | 1015.0 |
| 20260506205907 | 74 | 217 | 1.7 | 5.2 | 0.00 | 0.00 | 0.00 | 55 | 1015.1 |
| 20260506205353 | 74 | 225 | 0.9 | 6.1 | 0.00 | 0.00 | 0.00 | 55 | 1015.1 |
| 20260506204857 | 74 | 208 | 0.9 | 6.1 | 0.00 | 0.00 | 0.00 | 54 | 1015.2 |
| 20260506204402 | 75 | 179 | 2.6 | 5.2 | 0.00 | 0.00 | 0.00 | 55 | 1015.2 |
| 20260506203849 | 74 | 150 | 1.7 | 4.3 | 0.00 | 0.00 | 0.00 | 55 | 1015.2 |
| 20260506203413 | 73 | 162 | 0.9 | 5.2 | 0.00 | 0.00 | 0.00 | 56 | 1015.3 |
| 20260506202855 | 73 | 273 | 1.7 | 5.2 | 0.00 | 0.00 | 0.00 | 57 | 1015.4 |
| 20260506202359 | 72 | 239 | 1.7 | 4.3 | 0.00 | 0.00 | 0.00 | 56 | 1015.4 |
| 20260506201925 | 72 | 179 | 1.7 | 6.1 | 0.00 | 0.00 | 0.00 | 56 | 1015.4 |
| 20260506201348 | 72 | 148 | 1.7 | 6.1 | 0.00 | 0.00 | 0.00 | 56 | 1015.5 |
| 20260506200853 | 72 | 156 | 0.9 | 5.2 | 0.00 | 0.00 | 0.00 | 59 | 1015.5 |
| 20260506200358 | 72 | 236 | 1.7 | 5.2 | 0.00 | 0.00 | 0.00 | 58 | 1015.8 |
| 20260506195903 | 71 | 232 | 2.6 | 5.2 | 0.00 | 0.00 | 0.00 | 58 | 1015.8 |
| 20260506195406 | 71 | 160 | 2.6 | 4.3 | 0.00 | 0.00 | 0.00 | 57 | 1015.8 |
| 20260506194851 | 71 | 1 | 0.9 | 4.3 | 0.00 | 0.00 | 0.00 | 59 | 1015.9 |
| 20260506194355 | 70 | 212 | 1.7 | 4.3 | 0.00 | 0.00 | 0.00 | 60 | 1015.9 |
| 20260506193901 | 70 | 274 | 2.6 | 4.3 | 0.00 | 0.00 | 0.00 | 58 | 1016.0 |
| 20260506193406 | 71 | 266 | 0.9 | 4.3 | 0.00 | 0.00 | 0.00 | 59 | 1016.0 |
| 20260506192856 | 70 | 210 | 1.7 | 3.5 | 0.00 | 0.00 | 0.00 | 59 | 1016.1 |
| 20260506192402 | 70 | 189 | 1.7 | 4.3 | 0.00 | 0.00 | 0.00 | 59 | 1016.1 |
| 20260506191909 | 70 | 173 | 2.6 | 4.3 | 0.00 | 0.00 | 0.00 | 59 | 1016.2 |
| 20260506191351 | 70 | 141 | 2.6 | 4.3 | 0.00 | 0.00 | 0.00 | 59 | 1016.3 |
| 20260506190856 | 70 | 230 | 1.7 | 5.2 | 0.00 | 0.00 | 0.00 | 59 | 1016.3 |
| 20260506190401 | 69 | 199 | 2.6 | 5.2 | 0.00 | 0.00 | 0.00 | 60 | 1016.4 |
| 20260506185927 | 69 | 166 | 0.9 | 5.2 | 0.00 | 0.00 | 0.00 | 61 | 1016.4 |
| 20260506185349 | 69 | 266 | 1.7 | 5.2 | 0.00 | 0.00 | 0.00 | 61 | 1016.5 |
| 20260506184853 | 69 | 149 | 1.7 | 3.5 | 0.00 | 0.00 | 0.00 | 61 | 1016.5 |
| 20260506184357 | 68 | 141 | 0.0 | 5.2 | 0.00 | 0.00 | 0.00 | 62 | 1016.5 |
| 20260506183903 | 68 | 214 | 1.7 | 6.1 | 0.00 | 0.00 | 0.00 | 62 | 1016.6 |
| 20260506183406 | 68 | 120 | 2.6 | 6.1 | 0.00 | 0.00 | 0.00 | 61 | 1016.6 |
| 20260506182853 | 69 | 278 | 0.9 | 5.2 | 0.00 | 0.00 | 0.00 | 62 | 1016.7 |
| 20260506182356 | 68 | 254 | 1.7 | 3.5 | 0.00 | 0.00 | 0.00 | 62 | 1016.6 |
| 20260506181905 | 68 | 283 | 0.9 | 4.3 | 0.00 | 0.00 | 0.00 | 63 | 1016.7 |
| 20260506181350 | 67 | 149 | 0.9 | 4.3 | 0.00 | 0.00 | 0.00 | 62 | 1016.7 |
| 20260506180856 | 68 | 152 | 1.7 | 4.3 | 0.00 | 0.00 | 0.00 | 61 | 1016.7 |
| 20260506180359 | 68 | 143 | 0.0 | 3.5 | 0.00 | 0.00 | 0.00 | 64 | 1016.7 |
| 20260506175926 | 67 | 216 | 0.0 | 3.5 | 0.00 | 0.00 | 0.00 | 65 | 1016.7 |
| 20260506175350 | 67 | 140 | 2.6 | 4.3 | 0.00 | 0.00 | 0.00 | 64 | 1016.7 |
| 20260506174856 | 67 | 144 | 0.9 | 4.3 | 0.00 | 0.00 | 0.00 | 63 | 1016.7 |
| 20260506174400 | 67 | 184 | 1.7 | 4.3 | 0.00 | 0.00 | 0.00 | 64 | 1016.6 |
| 20260506173906 | 67 | 174 | 0.9 | 4.3 | 0.00 | 0.00 | 0.00 | 64 | 1016.7 |
| 20260506173351 | 66 | 291 | 1.7 | 4.3 | 0.00 | 0.00 | 0.00 | 64 | 1016.7 |
| 20260506172857 | 66 | 108 | 0.9 | 4.3 | 0.00 | 0.00 | 0.00 | 66 | 1016.8 |
| 20260506172402 | 66 | 176 | 0.9 | 3.5 | 0.00 | 0.00 | 0.00 | 66 | 1016.7 |
| 20260506171911 | 65 | 133 | 1.7 | 3.5 | 0.00 | 0.00 | 0.00 | 66 | 1016.8 |
| 20260506171354 | 64 | 79 | 1.7 | 4.3 | 0.00 | 0.00 | 0.00 | 67 | 1016.7 |
| 20260506170859 | 65 | 133 | 2.6 | 4.3 | 0.00 | 0.00 | 0.00 | 67 | 1016.7 |
| 20260506170403 | 64 | 147 | 0.9 | 4.3 | 0.00 | 0.00 | 0.00 | 67 | 1016.6 |
| 20260506165907 | 64 | 176 | 1.7 | 4.3 | 0.00 | 0.00 | 0.00 | 68 | 1016.6 |
| 20260506165351 | 64 | 168 | 0.9 | 6.1 | 0.00 | 0.00 | 0.00 | 69 | 1016.6 |
| 20260506164856 | 63 | 135 | 0.9 | 6.1 | 0.00 | 0.00 | 0.00 | 69 | 1016.6 |
| 20260506164401 | 64 | 232 | 1.7 | 5.2 | 0.00 | 0.00 | 0.00 | 68 | 1016.7 |
| 20260506163905 | 63 | 172 | 0.9 | 4.3 | 0.00 | 0.00 | 0.00 | 70 | 1016.7 |
| 20260506163350 | 63 | 168 | 0.9 | 4.3 | 0.00 | 0.00 | 0.00 | 70 | 1016.7 |
| 20260506162854 | 64 | 181 | 1.7 | 3.5 | 0.00 | 0.00 | 0.00 | 69 | 1016.7 |
| 20260506162357 | 64 | 169 | 0.9 | 3.5 | 0.00 | 0.00 | 0.00 | 70 | 1016.6 |
| 20260506161921 | 63 | 183 | 0.9 | 2.6 | 0.00 | 0.00 | 0.00 | 71 | 1016.6 |
| 20260506161407 | 63 | 163 | 0.0 | 2.6 | 0.00 | 0.00 | 0.00 | 71 | 1016.6 |
| 20260506160853 | 62 | 93 | 0.0 | 3.5 | 0.00 | 0.00 | 0.00 | 72 | 1016.6 |
| 20260506160427 | 62 | 155 | 0.9 | 3.5 | 0.00 | 0.00 | 0.00 | 73 | 1016.7 |
| 20260506155406 | 61 | 174 | 0.0 | 3.5 | 0.00 | 0.00 | 0.00 | 74 | 1016.7 |
| 20260506154851 | 61 | 139 | 0.9 | 3.5 | 0.00 | 0.00 | 0.00 | 73 | 1016.7 |
| 20260506154356 | 61 | 179 | 0.0 | 3.5 | 0.00 | 0.00 | 0.00 | 75 | 1016.6 |
| 20260506153902 | 60 | 136 | 0.0 | 3.5 | 0.00 | 0.00 | 0.00 | 74 | 1016.6 |
| 20260506153348 | 60 | 161 | 0.0 | 3.5 | 0.00 | 0.00 | 0.00 | 76 | 1016.7 |
| 20260506152854 | 60 | 163 | 0.9 | 3.5 | 0.00 | 0.00 | 0.00 | 76 | 1016.7 |
| 20260506152358 | 60 | 156 | 0.0 | 1.7 | 0.00 | 0.00 | 0.00 | 77 | 1016.7 |
| 20260506151918 | 59 | 127 | 0.0 | 1.7 | 0.00 | 0.00 | 0.00 | 77 | 1016.7 |
| 20260506151359 | 60 | 172 | 0.9 | 1.7 | 0.00 | 0.00 | 0.00 | 76 | 1016.7 |
| 20260506150906 | 60 | 146 | 0.0 | 1.7 | 0.00 | 0.00 | 0.00 | 76 | 1016.8 |
| 20260506150351 | 60 | 162 | 0.0 | 3.5 | 0.00 | 0.00 | 0.00 | 78 | 1016.8 |
| 20260506145854 | 59 | 158 | 0.0 | 3.5 | 0.00 | 0.00 | 0.00 | 78 | 1016.7 |
| 20260506145358 | 59 | 134 | 0.0 | 0.0 | 0.00 | 0.00 | 0.00 | 78 | 1016.7 |
| 20260506144903 | 59 | 153 | 0.0 | 2.6 | 0.00 | 0.00 | 0.00 | 79 | 1016.7 |
| 20260506144352 | 59 | 209 | 0.0 | 2.6 | 0.00 | 0.00 | 0.00 | 77 | 1016.8 |
| 20260506143856 | 60 | 140 | 0.0 | 1.7 | 0.00 | 0.00 | 0.00 | 77 | 1016.7 |
| 20260506143400 | 59 | 101 | 0.0 | 0.9 | 0.00 | 0.00 | 0.00 | 77 | 1016.8 |
| 20260506142920 | 59 | 60 | 0.0 | 0.9 | 0.00 | 0.00 | 0.00 | 77 | 1016.8 |
| 20260506142353 | 58 | 141 | 0.0 | 0.0 | 0.00 | 0.00 | 0.00 | 77 | 1016.7 |
| 20260506141851 | 58 | 142 | 0.0 | 0.0 | 0.00 | 0.00 | 0.00 | 78 | 1016.7 |
| 20260506141353 | 57 | 84 | 0.0 | 0.0 | 0.00 | 0.00 | 0.00 | 77 | 1016.7 |
| 20260506140901 | 57 | 81 | 0.0 | 0.0 | 0.00 | 0.00 | 0.00 | 78 | 1016.6 |
| 20260506140407 | 56 | 81 | 0.0 | 0.0 | 0.00 | 0.00 | 0.00 | 80 | 1016.5 |
| 20260506135852 | 55 | 81 | 0.0 | 0.0 | 0.00 | 0.00 | 0.00 | 83 | 1016.5 |
| 20260506135356 | 54 | 48 | 0.0 | 0.0 | 0.00 | 0.00 | 0.00 | 84 | 1016.4 |
| 20260506134900 | 53 | 48 | 0.0 | 0.0 | 0.00 | 0.00 | 0.00 | 85 | 1016.4 |
| 20260506133900 | 52 | 48 | 0.0 | 0.0 | 0.00 | 0.00 | 0.00 | 87 | 1016.3 |
| 20260506133352 | 51 | 48 | 0.0 | 0.0 | 0.00 | 0.00 | 0.00 | 88 | 1016.3 |
| 20260506132859 | 51 | 48 | 0.0 | 0.0 | 0.00 | 0.00 | 0.00 | 88 | 1016.3 |
| 20260506132403 | 51 | 48 | 0.0 | 0.0 | 0.00 | 0.00 | 0.00 | 88 | 1016.3 |
| 20260506131854 | 51 | 48 | 0.0 | 0.0 | 0.00 | 0.00 | 0.00 | 88 | 1016.1 |
| 20260506131359 | 51 | 48 | 0.0 | 0.0 | 0.00 | 0.00 | 0.00 | 88 | 1016.1 |
| 20260506130904 | 50 | 48 | 0.0 | 0.0 | 0.00 | 0.00 | 0.00 | 89 | 1016.1 |
| 20260506130348 | 50 | 49 | 0.0 | 0.0 | 0.00 | 0.00 | 0.00 | 90 | 1016.1 |
| 20260506125856 | 49 | 49 | 0.0 | 0.0 | 0.00 | 0.00 | 0.00 | 90 | 1016.0 |
| 20260506125359 | 49 | 49 | 0.0 | 0.0 | 0.00 | 0.00 | 0.00 | 90 | 1016.0 |
| 20260506124903 | 49 | 49 | 0.0 | 0.0 | 0.00 | 0.00 | 0.00 | 89 | 1016.1 |
| 20260506124406 | 49 | 49 | 0.0 | 0.0 | 0.00 | 0.00 | 0.00 | 89 | 1016.0 |
| 20260506123911 | 49 | 49 | 0.0 | 0.0 | 0.00 | 0.00 | 0.00 | 90 | 1015.9 |
| 20260506123355 | 49 | 49 | 0.0 | 0.0 | 0.00 | 0.00 | 0.00 | 89 | 1015.9 |
| 20260506122900 | 49 | 49 | 0.0 | 0.0 | 0.00 | 0.00 | 0.00 | 89 | 1015.8 |
| 20260506122404 | 49 | 49 | 0.0 | 0.0 | 0.00 | 0.00 | 0.00 | 89 | 1015.8 |
| 20260506121855 | 50 | 49 | 0.0 | 0.0 | 0.00 | 0.00 | 0.00 | 89 | 1015.8 |
| 20260506121420 | 50 | 49 | 0.0 | 0.0 | 0.00 | 0.00 | 0.00 | 89 | 1015.7 |
| 20260506120924 | 50 | 49 | 0.0 | 0.0 | 0.00 | 0.00 | 0.00 | 89 | 1015.6 |
| 20260506120403 | 50 | 49 | 0.0 | 0.0 | 0.00 | 0.00 | 0.00 | 89 | 1015.5 |
| 20260506115907 | 50 | 49 | 0.0 | 0.0 | 0.00 | 0.00 | 0.00 | 89 | 1015.5 |
| 20260506115411 | 50 | 49 | 0.0 | 0.0 | 0.00 | 0.00 | 0.00 | 89 | 1015.5 |
| 20260506114855 | 50 | 49 | 0.0 | 0.0 | 0.00 | 0.00 | 0.00 | 89 | 1015.5 |
| 20260506114401 | 50 | 49 | 0.0 | 0.0 | 0.00 | 0.00 | 0.00 | 89 | 1015.5 |
| 20260506113906 | 50 | 49 | 0.0 | 0.0 | 0.00 | 0.00 | 0.00 | 88 | 1015.5 |
| 20260506113350 | 50 | 49 | 0.0 | 0.0 | 0.00 | 0.00 | 0.00 | 88 | 1015.5 |
| 20260506112856 | 50 | 49 | 0.0 | 0.0 | 0.00 | 0.00 | 0.00 | 88 | 1015.5 |
| 20260506112402 | 50 | 49 | 0.0 | 0.0 | 0.00 | 0.00 | 0.00 | 87 | 1015.4 |
| 20260506111907 | 50 | 49 | 0.0 | 0.0 | 0.00 | 0.00 | 0.00 | 88 | 1015.4 |
| 20260506111356 | 50 | 49 | 0.0 | 0.0 | 0.00 | 0.00 | 0.00 | 87 | 1015.4 |
| 20260506110900 | 50 | 49 | 0.0 | 0.0 | 0.00 | 0.00 | 0.00 | 87 | 1015.5 |
| 20260506110405 | 50 | 49 | 0.0 | 0.0 | 0.00 | 0.00 | 0.00 | 87 | 1015.4 |
| 20260506105928 | 50 | 49 | 0.0 | 0.0 | 0.00 | 0.00 | 0.00 | 86 | 1015.4 |
| 20260506105354 | 51 | 49 | 0.0 | 0.0 | 0.00 | 0.00 | 0.00 | 86 | 1015.4 |
| 20260506104859 | 51 | 49 | 0.0 | 0.0 | 0.00 | 0.00 | 0.00 | 86 | 1015.4 |
| 20260506104426 | 51 | 49 | 0.0 | 0.0 | 0.00 | 0.00 | 0.00 | 86 | 1015.4 |
| 20260506103849 | 51 | 49 | 0.0 | 0.0 | 0.00 | 0.00 | 0.00 | 86 | 1015.4 |
| 20260506103356 | 51 | 49 | 0.0 | 0.0 | 0.00 | 0.00 | 0.00 | 85 | 1015.5 |
| 20260506102902 | 50 | 49 | 0.0 | 0.0 | 0.00 | 0.00 | 0.00 | 85 | 1015.5 |
| 20260506102348 | 51 | 49 | 0.0 | 0.0 | 0.00 | 0.00 | 0.00 | 85 | 1015.5 |
| 20260506101853 | 51 | 49 | 0.0 | 0.0 | 0.00 | 0.00 | 0.00 | 85 | 1015.5 |
| 20260506101400 | 51 | 49 | 0.0 | 0.0 | 0.00 | 0.00 | 0.00 | 85 | 1015.4 |
| 20260506100851 | 50 | 49 | 0.0 | 0.0 | 0.00 | 0.00 | 0.00 | 85 | 1015.4 |
| 20260506100355 | 50 | 49 | 0.0 | 0.0 | 0.00 | 0.00 | 0.00 | 85 | 1015.5 |
| 20260506095901 | 50 | 49 | 0.0 | 0.0 | 0.00 | 0.00 | 0.00 | 85 | 1015.5 |
| 20260506095426 | 50 | 49 | 0.0 | 0.0 | 0.00 | 0.00 | 0.00 | 85 | 1015.5 |
| 20260506094851 | 51 | 49 | 0.0 | 0.0 | 0.00 | 0.00 | 0.00 | 85 | 1015.5 |
| 20260506094357 | 51 | 49 | 0.0 | 0.0 | 0.00 | 0.00 | 0.00 | 84 | 1015.5 |
| 20260506093924 | 51 | 49 | 0.0 | 0.0 | 0.00 | 0.00 | 0.00 | 84 | 1015.5 |
| 20260506093349 | 51 | 49 | 0.0 | 0.0 | 0.00 | 0.00 | 0.00 | 84 | 1015.5 |
| 20260506092854 | 51 | 49 | 0.0 | 0.0 | 0.00 | 0.00 | 0.00 | 84 | 1015.5 |
| 20260506092401 | 51 | 49 | 0.0 | 0.0 | 0.00 | 0.00 | 0.00 | 84 | 1015.5 |
| 20260506091926 | 51 | 49 | 0.0 | 0.0 | 0.00 | 0.00 | 0.00 | 84 | 1015.5 |
| 20260506091352 | 51 | 91 | 0.0 | 0.0 | 0.00 | 0.00 | 0.00 | 84 | 1015.5 |
| 20260506090918 | 51 | 91 | 0.0 | 0.0 | 0.00 | 0.00 | 0.00 | 83 | 1015.7 |
| 20260506090402 | 51 | 91 | 0.0 | 0.0 | 0.00 | 0.00 | 0.00 | 83 | 1015.8 |
| 20260506085910 | 51 | 91 | 0.0 | 0.0 | 0.00 | 0.00 | 0.00 | 82 | 1015.8 |
| 20260506085355 | 52 | 91 | 0.0 | 0.0 | 0.00 | 0.00 | 0.00 | 82 | 1015.9 |
| 20260506084901 | 52 | 91 | 0.0 | 0.0 | 0.00 | 0.00 | 0.00 | 82 | 1015.9 |
| 20260506084348 | 52 | 91 | 0.0 | 0.0 | 0.00 | 0.00 | 0.00 | 82 | 1015.9 |
| 20260506083853 | 52 | 91 | 0.0 | 0.0 | 0.00 | 0.00 | 0.00 | 81 | 1016.0 |
| 20260506083358 | 53 | 91 | 0.0 | 0.0 | 0.00 | 0.00 | 0.00 | 81 | 1015.9 |
| 20260506082901 | 53 | 91 | 0.0 | 0.0 | 0.00 | 0.00 | 0.00 | 81 | 1016.0 |
| 20260506082427 | 53 | 92 | 0.0 | 0.0 | 0.00 | 0.00 | 0.00 | 81 | 1015.9 |
| 20260506081849 | 53 | 92 | 0.0 | 0.0 | 0.00 | 0.00 | 0.00 | 80 | 1016.0 |
| 20260506081354 | 53 | 94 | 0.0 | 0.0 | 0.00 | 0.00 | 0.00 | 80 | 1016.0 |
| 20260506080918 | 54 | 94 | 0.0 | 0.0 | 0.00 | 0.00 | 0.00 | 79 | 1016.0 |
| 20260506080359 | 54 | 94 | 0.0 | 0.0 | 0.00 | 0.00 | 0.00 | 78 | 1016.0 |
| 20260506073348 | 54 | 341 | 0.0 | 0.0 | 0.00 | 0.00 | 0.00 | 78 | 1016.1 |
| 20260506072852 | 54 | 341 | 0.0 | 0.9 | 0.00 | 0.00 | 0.00 | 78 | 1016.1 |
| 20260506072357 | 54 | 255 | 0.0 | 0.9 | 0.00 | 0.00 | 0.00 | 78 | 1016.1 |
| 20260506071900 | 54 | 255 | 0.0 | 0.0 | 0.00 | 0.00 | 0.00 | 78 | 1016.1 |
| 20260506071405 | 54 | 255 | 0.0 | 0.9 | 0.00 | 0.00 | 0.00 | 78 | 1016.0 |
| 20260506070851 | 54 | 255 | 0.0 | 0.9 | 0.00 | 0.00 | 0.00 | 79 | 1016.0 |
| 20260506070357 | 54 | 255 | 0.0 | 0.0 | 0.00 | 0.00 | 0.00 | 80 | 1015.9 |
| 20260506062402 | 54 | 255 | 0.0 | 0.0 | 0.00 | 0.00 | 0.00 | 79 | 1015.4 |
| 20260506061904 | 54 | 255 | 0.0 | 0.0 | 0.00 | 0.00 | 0.00 | 79 | 1015.4 |
| 20260506061422 | 54 | 255 | 0.0 | 0.0 | 0.00 | 0.00 | 0.00 | 79 | 1015.3 |
| 20260506060925 | 54 | 255 | 0.0 | 0.0 | 0.00 | 0.00 | 0.00 | 79 | 1015.3 |
| 20260506060354 | 54 | 255 | 0.0 | 0.0 | 0.00 | 0.00 | 0.00 | 79 | 1015.3 |
| 20260506051402 | 54 | 255 | 0.0 | 0.0 | 0.00 | 0.00 | 0.00 | 79 | 1015.1 |
| 20260506050905 | 54 | 255 | 0.0 | 0.0 | 0.00 | 0.00 | 0.00 | 79 | 1015.0 |
| 20260506050351 | 54 | 255 | 0.0 | 0.0 | 0.00 | 0.00 | 0.00 | 78 | 1015.0 |
| 20260506044847 | 54 | 255 | 0.0 | 0.0 | 0.00 | 0.00 | 0.00 | 79 | 1014.8 |
| 20260506044354 | 54 | 255 | 0.0 | 0.0 | 0.00 | 0.00 | 0.00 | 79 | 1014.8 |
| 20260506043858 | 54 | 255 | 0.0 | 0.0 | 0.00 | 0.00 | 0.00 | 79 | 1014.7 |
| 20260506043402 | 54 | 255 | 0.0 | 0.0 | 0.00 | 0.00 | 0.00 | 79 | 1014.7 |
| 20260506042906 | 54 | 255 | 0.0 | 0.0 | 0.00 | 0.00 | 0.00 | 78 | 1014.6 |
| 20260506042410 | 54 | 255 | 0.0 | 0.0 | 0.00 | 0.00 | 0.00 | 78 | 1014.5 |
| 20260506041851 | 55 | 255 | 0.0 | 0.0 | 0.00 | 0.00 | 0.00 | 78 | 1014.4 |
| 20260506041417 | 55 | 255 | 0.0 | 0.0 | 0.00 | 0.00 | 0.00 | 78 | 1014.3 |
| 20260506040921 | 55 | 255 | 0.0 | 0.0 | 0.00 | 0.00 | 0.00 | 77 | 1014.2 |
| 20260506040405 | 55 | 255 | 0.0 | 0.0 | 0.00 | 0.00 | 0.00 | 77 | 1014.2 |
| 20260506035852 | 55 | 255 | 0.0 | 0.0 | 0.00 | 0.00 | 0.00 | 77 | 1014.1 |
| 20260506035357 | 55 | 255 | 0.0 | 0.0 | 0.00 | 0.00 | 0.00 | 77 | 1014.0 |
| 20260506034902 | 55 | 255 | 0.0 | 0.0 | 0.00 | 0.00 | 0.00 | 76 | 1013.9 |
| 20260506034349 | 56 | 255 | 0.0 | 0.0 | 0.00 | 0.00 | 0.00 | 76 | 1013.9 |
| 20260506033853 | 56 | 255 | 0.0 | 0.0 | 0.00 | 0.00 | 0.00 | 76 | 1013.9 |
| 20260506033358 | 56 | 255 | 0.0 | 0.0 | 0.00 | 0.00 | 0.00 | 75 | 1013.9 |
| 20260506032905 | 57 | 255 | 0.0 | 0.0 | 0.00 | 0.00 | 0.00 | 75 | 1013.8 |
| 20260506032349 | 57 | 255 | 0.0 | 0.0 | 0.00 | 0.00 | 0.00 | 74 | 1013.7 |
| 20260506031855 | 57 | 255 | 0.0 | 0.0 | 0.00 | 0.00 | 0.00 | 74 | 1013.6 |
| 20260506031402 | 57 | 255 | 0.0 | 0.0 | 0.00 | 0.00 | 0.00 | 74 | 1013.5 |
| 20260506030850 | 57 | 255 | 0.0 | 0.0 | 0.00 | 0.00 | 0.00 | 74 | 1013.5 |
| 20260506030354 | 57 | 255 | 0.0 | 0.0 | 0.00 | 0.00 | 0.00 | 74 | 1013.5 |
| 20260506025900 | 57 | 255 | 0.0 | 0.0 | 0.00 | 0.00 | 0.00 | 73 | 1013.4 |
| 20260506025349 | 58 | 255 | 0.0 | 0.0 | 0.00 | 0.00 | 0.00 | 72 | 1013.2 |
| 20260506024854 | 58 | 255 | 0.0 | 0.0 | 0.00 | 0.00 | 0.00 | 71 | 1013.1 |
| 20260506024419 | 59 | 255 | 0.0 | 0.0 | 0.00 | 0.00 | 0.00 | 70 | 1013.0 |
| 20260506023922 | 59 | 255 | 0.0 | 0.0 | 0.00 | 0.00 | 0.00 | 69 | 1013.0 |
| 20260506023425 | 59 | 255 | 0.0 | 0.0 | 0.00 | 0.00 | 0.00 | 69 | 1012.9 |
| 20260506022858 | 60 | 255 | 0.0 | 0.0 | 0.00 | 0.00 | 0.00 | 68 | 1012.9 |
| 20260506022403 | 60 | 255 | 0.0 | 0.0 | 0.00 | 0.00 | 0.00 | 67 | 1012.8 |
| 20260506021907 | 60 | 255 | 0.0 | 1.7 | 0.00 | 0.00 | 0.00 | 67 | 1012.8 |
| 20260506021351 | 60 | 255 | 0.9 | 1.7 | 0.00 | 0.00 | 0.00 | 66 | 1012.6 |
| 20260506020919 | 61 | 256 | 0.0 | 1.7 | 0.00 | 0.00 | 0.00 | 65 | 1012.6 |
| 20260506020402 | 61 | 240 | 0.0 | 0.9 | 0.00 | 0.00 | 0.00 | 65 | 1012.6 |
| 20260506015848 | 61 | 248 | 0.0 | 0.9 | 0.00 | 0.00 | 0.00 | 64 | 1012.6 |
| 20260506015353 | 61 | 262 | 0.0 | 1.7 | 0.00 | 0.00 | 0.00 | 62 | 1012.6 |
| 20260506014859 | 61 | 236 | 0.0 | 1.7 | 0.00 | 0.00 | 0.00 | 61 | 1012.6 |
| 20260506013907 | 62 | 194 | 0.0 | 1.7 | 0.00 | 0.00 | 0.00 | 62 | 1012.5 |
| 20260506012850 | 62 | 252 | 0.9 | 2.6 | 0.00 | 0.00 | 0.00 | 61 | 1012.4 |
| 20260506012354 | 62 | 251 | 0.0 | 1.7 | 0.00 | 0.00 | 0.00 | 62 | 1012.4 |
| 20260506011902 | 62 | 264 | 0.9 | 1.7 | 0.00 | 0.00 | 0.00 | 62 | 1012.4 |
| 20260506011352 | 62 | 140 | 0.0 | 2.6 | 0.00 | 0.00 | 0.00 | 62 | 1012.4 |
| 20260506010857 | 62 | 280 | 0.9 | 2.6 | 0.00 | 0.00 | 0.00 | 61 | 1012.4 |
| 20260506010359 | 62 | 262 | 0.9 | 1.7 | 0.00 | 0.00 | 0.00 | 59 | 1012.4 |
| 20260506005924 | 63 | 250 | 0.9 | 2.6 | 0.00 | 0.00 | 0.00 | 57 | 1012.4 |
| 20260506005426 | 63 | 237 | 0.9 | 3.5 | 0.00 | 0.00 | 0.00 | 56 | 1012.4 |
| 20260506004853 | 63 | 259 | 0.9 | 3.5 | 0.00 | 0.00 | 0.00 | 56 | 1012.4 |
| 20260506004355 | 63 | 184 | 0.9 | 2.6 | 0.00 | 0.00 | 0.00 | 54 | 1012.4 |